Weather History for Muskogee, OK

Change the Weather History Date:

Tuesday, January 8, 2013

  Actual Average Record
Temperature  
Mean Temperature 40 °F -  
Max Temperature 53 °F 46 °F 71 °F (2003)
Min Temperature 28 °F 27 °F 21 °F (1999)
Degree Days  
Heating Degree Days 24    
Moisture  
Dew Point 38 °F    
Average Humidity 85    
Maximum Humidity 100    
Minimum Humidity 47    
Precipitation  
Precipitation 0.28 in - - ()
Sea Level Pressure  
Sea Level Pressure 30.15 in    
Wind  
Wind Speed 5 mph (ENE)    
Max Wind Speed 16 mph    
Max Gust Speed 20 mph    
Visibility 6 miles    
Events Rain    
Averages and records for this station are not official NWS values.
T = Trace of Precipitation, MM = Missing Value Source: NWS Daily Summary

Daily Weather History Graph

Daily Weather History Graph

Search for Another Location

Airport:

Trip Planner

Search our weather history database for the weather conditions in past years. The results will help you decide how hot, cold, wet, or windy it might be!

Date:

Astronomy

Jan. 08, 2013 Rise Set
Actual Time 7:31 AM CST 5:25 PM CST
Civil Twilight 7:03 AM CST 5:53 PM CST
Nautical Twilight 6:31 AM CST 6:24 PM CST
Astronomical Twilight 6:01 AM CST 6:55 PM CST
Moon 4:06 AM CST (1/8) 2:28 PM CST (1/8)
Length of Visible Light 10h 49m
Length of Day
9h 53m
Waning Crescent, 13% of the Moon is Illuminated
Jan 8
Waning Crescent
Jan 11
New
Jan 18
First Quarter
Jan 26
Full
Feb 3
Last Quarter

Hourly Weather History & Observations

Time (CST) Temp. Windchill Dew Point Humidity Pressure Visibility Wind Dir Wind Speed Gust Speed Precip Events Conditions
12:53 AM 35.1 °F - 27.0 °F 72% 30.15 in 10.0 mi Calm Calm - N/A   Clear
1:53 AM 33.1 °F 30.0 °F 27.0 °F 78% 30.16 in 10.0 mi SSE 3.5 mph - N/A   Clear
2:53 AM 30.9 °F 26.2 °F 26.1 °F 82% 30.15 in 10.0 mi South 4.6 mph - N/A   Clear
3:53 AM 32.0 °F - 26.1 °F 79% 30.15 in 10.0 mi Calm Calm - N/A   Clear
4:53 AM 30.0 °F 25.2 °F 25.0 °F 82% 30.14 in 10.0 mi SSE 4.6 mph - N/A   Partly Cloudy
5:53 AM 28.0 °F 20.8 °F 25.0 °F 88% 30.14 in 10.0 mi SSE 6.9 mph - N/A   Partly Cloudy
6:53 AM 28.0 °F 21.7 °F 24.1 °F 85% 30.15 in 10.0 mi South 5.8 mph - N/A   Partly Cloudy
7:53 AM 30.0 °F 24.1 °F 25.0 °F 82% 30.17 in 10.0 mi South 5.8 mph - N/A   Clear
8:53 AM 35.1 °F 31.0 °F 28.9 °F 78% 30.17 in 10.0 mi SSE 4.6 mph - N/A   Mostly Cloudy
9:53 AM 43.0 °F 37.2 °F 30.0 °F 60% 30.16 in 10.0 mi SE 10.4 mph - N/A   Mostly Cloudy
10:53 AM 46.9 °F - 30.9 °F 54% 30.15 in 10.0 mi SE 16.1 mph - N/A   Clear
11:53 AM 51.1 °F - 32.0 °F 48% 30.10 in 10.0 mi SE 13.8 mph - N/A   Clear
12:53 PM 53.1 °F - 33.1 °F 47% 30.09 in 10.0 mi SSE 12.7 mph 19.6 mph N/A   Scattered Clouds
1:53 PM 53.1 °F - 34.0 °F 48% 30.09 in 10.0 mi SSE 9.2 mph - N/A   Overcast
3:53 PM 48.0 °F - 39.0 °F 71% 30.09 in 10.0 mi NE 3.5 mph - 0.00 in   Overcast
4:45 PM 48.2 °F - 41.0 °F 76% 30.09 in 10.0 mi NNW 4.6 mph - N/A   Overcast
4:53 PM 46.9 °F - 39.9 °F 77% 30.10 in 10.0 mi NNW 4.6 mph - N/A   Overcast
5:53 PM 46.9 °F - 39.9 °F 77% 30.12 in 10.0 mi North 5.8 mph - N/A   Overcast
6:53 PM 45.0 °F 43.5 °F 44.1 °F 97% 30.14 in 7.0 mi East 3.5 mph - 0.01 in Rain Light Rain
7:22 PM 44.6 °F 42.2 °F 44.6 °F 100% 30.11 in 5.0 mi NE 4.6 mph - 0.05 in Rain Light Rain
7:53 PM 45.0 °F 41.2 °F 45.0 °F 100% 30.16 in 3.0 mi NW 6.9 mph - 0.11 in Rain Rain
8:00 PM 44.6 °F 40.7 °F 44.6 °F 100% 30.15 in 2.5 mi NNW 6.9 mph - 0.02 in Rain Rain
8:07 PM 44.6 °F 40.7 °F 44.6 °F 100% 30.16 in 3.0 mi NNW 6.9 mph - 0.03 in Rain Rain
8:37 PM 46.4 °F 45.2 °F 44.6 °F 93% 30.16 in 3.0 mi North 3.5 mph - 0.04 in Rain Light Rain
8:45 PM 46.4 °F 45.2 °F 44.6 °F 93% 30.16 in 2.5 mi NNE 3.5 mph - 0.04 in Rain Light Rain
8:53 PM 46.0 °F 44.8 °F 45.0 °F 96% 30.17 in 2.5 mi North 3.5 mph - 0.05 in Rain Light Rain
9:01 PM 46.4 °F 45.2 °F 44.6 °F 93% 30.16 in 2.5 mi North 3.5 mph - 0.00 in Rain Light Rain
9:18 PM 44.6 °F 43.1 °F 44.6 °F 100% 30.16 in 1.2 mi NNE 3.5 mph - 0.02 in Rain Rain
9:32 PM 44.6 °F - 44.6 °F 100% 30.16 in 1.5 mi Calm Calm - 0.05 in Rain Light Rain
9:36 PM 44.6 °F 43.1 °F 44.6 °F 100% 30.16 in 2.0 mi NE 3.5 mph - 0.06 in Rain Light Rain
9:43 PM 46.4 °F 45.2 °F 46.4 °F 100% 30.16 in 2.5 mi NNE 3.5 mph - 0.06 in Rain Light Rain
9:53 PM 46.0 °F 43.9 °F 46.0 °F 100% 30.17 in 2.0 mi North 4.6 mph - 0.06 in Rain Light Rain
11:09 PM 46.4 °F 45.2 °F 46.4 °F 100% 30.21 in 3.0 mi NNE 3.5 mph - 0.00 in Rain Light Rain
11:18 PM 46.4 °F 45.2 °F 46.4 °F 100% 30.21 in 2.0 mi NE 3.5 mph - 0.03 in Rain Rain
11:49 PM 46.4 °F 43.5 °F 46.4 °F 100% 30.21 in 1.8 mi ENE 5.8 mph - 0.05 in Rain Light Rain
11:53 PM 46.0 °F 43.1 °F 46.0 °F 100% 30.21 in 1.8 mi ENE 5.8 mph - 0.05 in Rain Light Rain